Wind_Speed
4 5 5 6 6 6 7 7 8 9 9 9 8 8 7 7 7 7 7 7 7 6 6 6 6 6 6 6 6 6 6 6 6 6 7 7 8 8 8 8 8 9 9
4 5 5 6 6 7 7 8 9 9 9 9 9 9 8 8 8 7 7 7 7 7 7 6 7 7 6 6 6 6 7 7 6 6 7 7 7 8 9 9 9 9 10
4 5 6 6 7 7 8 8 9 9 10 10 9 9 9 8 8 7 7 7 8 7 7 6 6 6 6 6 6 6 7 7 7 7 8 8 8 8 8 9 9 9 9
4 5 6 6 7 7 8 9 9 10 10 10 9 9 9 8 8 8 8 8 8 7 7 7 6 6 6 6 6 7 7 7 8 8 9 9 9 9 8 9 9 9 9
4 5 6 6 7 8 8 9 9 10 10 10 10 9 9 9 9 9 8 8 8 8 8 7 7 7 6 6 7 7 7 7 8 9 9 9 9 9 9 10 10 10 10
4 5 5 6 7 8 9 9 9 10 10 10 10 10 10 10 10 10 10 9 9 9 9 8 8 7 7 7 7 7 7 7 8 9 9 9 10 10 10 10 10 10 10
4 5 5 6 7 8 9 9 10 10 10 10 10 10 10 10 11 10 10 10 10 9 9 8 8 7 7 7 7 7 8 8 8 8 9 10 10 10 10 10 10 10 10
3 4 5 6 7 8 8 9 9 10 10 10 11 11 11 11 11 11 11 11 10 10 9 8 8 7 7 7 8 8 8 8 8 8 9 9 10 10 11 11 11 10 10
3 4 5 6 6 7 8 9 10 10 11 11 11 11 11 12 12 12 12 11 11 10 9 8 7 7 7 7 8 8 8 8 8 8 9 9 10 10 10 11 11 11 10
3 3 4 5 6 7 8 9 10 11 11 11 11 11 12 12 12 12 12 12 12 10 9 8 7 6 6 6 6 7 8 8 8 8 8 9 10 11 11 11 11 11 10
2 3 4 4 6 7 8 9 10 11 11 11 11 12 12 12 12 13 13 13 12 11 10 8 7 6 5 5 5 6 7 7 7 7 7 8 9 10 11 11 11 11 10
2 3 4 5 6 7 8 9 10 10 10 11 12 12 12 13 13 14 13 13 13 12 10 9 7 6 5 4 4 5 6 6 6 6 7 8 9 10 11 11 11 11 10
1 2 3 4 6 7 8 9 10 10 11 11 12 13 13 14 14 14 14 14 13 12 11 9 7 5 4 3 3 4 5 5 5 6 7 7 8 9 10 11 11 11 11
1 2 3 4 6 7 8 9 10 10 11 12 12 13 13 14 14 14 14 14 14 13 11 10 8 6 4 2 2 3 4 5 5 5 6 7 7 8 9 10 10 11 11
1 2 3 4 5 6 7 8 9 10 11 11 12 13 13 14 13 14 15 15 15 14 13 11 9 7 5 3 1 1 3 4 5 5 5 5 6 8 8 9 10 10 11
1 2 2 3 4 5 7 8 9 10 11 11 12 13 13 14 14 14 15 15 15 15 15 13 10 9 6 4 3 2 2 3 4 4 4 5 6 7 7 8 9 10 10
1 2 2 2 3 5 6 8 9 10 10 11 12 13 13 14 14 14 15 15 16 16 16 15 13 11 8 6 4 3 3 3 3 4 4 4 6 6 7 7 7 8 9
2 1 2 2 2 4 6 7 8 9 10 11 12 13 14 14 14 15 15 16 16 17 16 15 14 13 10 8 6 5 4 3 3 3 3 4 5 5 6 6 6 7 8
2 1 1 1 2 4 5 6 7 8 9 10 11 12 13 14 14 15 15 16 16 17 17 16 14 13 12 10 8 7 6 5 4 4 3 3 4 5 5 5 5 6 6
3 1 1 1 2 3 5 6 7 7 8 9 11 12 13 14 14 14 15 16 16 17 17 16 15 14 13 11 10 8 7 6 6 4 3 3 3 4 4 4 4 5 6
3 2 1 1 1 3 4 5 6 7 8 9 10 12 13 13 14 15 15 16 16 17 17 17 16 15 13 12 11 9 8 7 6 5 4 3 3 2 3 3 3 4 5
4 3 2 1 1 2 3 4 5 6 7 8 10 11 12 12 14 14 15 16 16 17 17 17 16 15 14 13 11 10 9 9 7 6 5 4 3 2 2 2 2 3 3
5 4 3 2 1 1 2 4 4 5 7 8 9 10 11 11 13 14 15 15 16 16 16 16 16 15 14 13 12 11 9 9 8 7 5 4 4 3 2 2 1 1 2
6 5 3 2 2 1 2 3 4 5 6 7 8 9 10 11 12 13 14 14 15 16 16 16 16 15 14 12 11 11 10 9 8 8 7 6 4 3 3 1 0 1 2
7 6 5 3 3 2 2 2 2 3 5 6 7 8 9 10 11 12 13 14 14 15 16 16 16 15 14 13 12 11 10 9 8 8 8 7 6 4 3 2 1 1 2
8 7 6 5 4 3 2 1 1 2 4 5 6 7 8 9 11 12 13 13 14 14 15 15 16 15 14 14 13 11 11 10 8 8 7 7 6 5 3 3 2 2 3
Wind_Direction
358 1 11 18 19 18 12 10 10 6 3 0 357 355 350 346 342 337 332 329 325 319 309 298 288 276 271 262 255 243 228 221 219 216 218 217 214 213 212 208 207 210 210
349 358 8 17 15 13 12 11 11 9 6 5 0 357 355 352 347 342 337 333 328 323 313 303 294 281 273 262 254 239 229 226 222 219 218 218 216 215 215 209 209 210 210
349 358 8 12 13 13 10 9 10 9 6 5 2 359 358 354 348 343 338 333 327 325 322 311 301 289 277 262 252 244 233 228 225 224 221 222 220 218 216 212 210 212 211
354 5 10 10 11 10 8 11 10 7 5 4 2 358 356 352 349 347 340 334 329 325 320 311 307 297 282 268 258 246 239 233 229 227 224 224 224 221 217 214 211 212 210
4 8 11 11 9 8 11 11 9 5 2 2 0 357 355 352 349 346 341 337 332 326 320 311 302 294 283 272 263 251 240 236 233 231 227 225 223 221 217 215 214 213 210
3 6 10 11 11 12 12 8 6 2 360 359 357 356 355 353 350 347 344 339 333 327 320 311 299 289 278 270 264 251 241 237 235 233 227 225 223 220 216 215 214 215 215
354 6 15 13 13 13 11 8 6 2 0 358 357 355 355 354 350 348 348 344 337 330 322 312 301 288 275 266 261 255 245 242 239 235 230 228 225 222 220 216 214 214 215
6 13 18 13 14 13 11 8 6 5 3 1 359 357 357 358 356 353 351 346 340 336 328 317 305 292 277 264 257 252 244 241 239 234 232 230 228 223 222 217 213 212 213
14 15 16 12 12 12 10 9 10 9 7 5 2 0 4 4 1 357 354 349 342 337 330 319 308 293 278 266 256 248 242 241 240 237 233 230 228 223 220 214 211 210 211
15 15 16 17 19 15 13 16 16 14 12 9 7 7 6 4 1 358 356 353 348 342 335 325 313 298 282 272 259 247 241 240 239 238 232 228 225 219 217 211 211 211 214
19 18 20 23 22 21 22 22 19 16 14 12 11 9 8 6 4 1 359 358 356 352 346 337 324 309 293 279 262 246 238 235 236 235 228 224 221 216 214 212 213 212 212
26 29 31 28 27 25 24 23 19 19 17 15 14 13 12 10 8 7 5 3 2 359 355 350 339 325 305 286 265 244 234 231 231 227 224 223 220 215 211 209 211 212 210
19 36 33 29 30 28 25 22 20 20 19 17 18 17 15 14 12 12 10 9 7 5 3 -0 355 344 324 299 271 242 230 225 221 218 220 218 217 213 211 210 211 211 209
33 38 41 34 30 27 25 23 21 21 20 20 21 21 20 19 18 18 16 15 13 12 10 8 4 358 347 333 291 243 225 217 215 213 215 215 215 211 212 214 213 212 212
55 47 46 35 31 29 24 23 23 23 23 24 23 23 22 22 22 22 19 18 18 16 15 13 11 10 9 7 354 208 198 202 206 207 210 211 211 206 209 213 214 215 215
93 57 47 37 34 30 25 25 26 26 26 26 24 24 25 24 23 22 21 22 22 21 22 22 20 22 26 32 49 86 148 180 191 196 201 201 200 203 209 211 214 217 219
120 65 51 43 38 31 27 28 28 27 28 27 27 28 27 25 24 23 24 25 25 25 25 27 30 33 38 43 55 74 107 141 164 175 185 190 190 197 206 211 214 217 221
135 78 62 57 43 36 34 32 29 29 31 31 30 29 28 27 27 27 27 28 30 30 30 32 35 38 41 48 57 69 84 109 133 153 171 183 186 193 203 210 216 219 224
160 115 81 74 51 42 39 36 29 31 34 32 31 32 31 30 31 31 30 31 33 33 33 34 37 41 45 52 59 67 76 90 101 118 141 166 179 187 199 212 217 220 230
181 160 122 107 69 50 43 38 32 35 37 35 35 35 34 33 34 33 33 34 35 34 34 36 40 44 47 53 58 63 70 77 85 98 111 135 161 180 196 209 216 222 232
194 179 168 150 95 61 50 45 41 42 40 39 38 36 35 33 34 34 35 35 35 35 36 39 42 45 48 51 53 58 62 67 75 81 89 100 119 150 189 195 204 222 231
198 192 185 160 116 74 63 55 49 47 43 42 39 37 37 36 34 34 35 36 36 37 38 39 40 43 46 49 50 53 56 62 67 73 81 89 94 105 147 162 191 219 232
202 200 189 169 147 88 77 63 56 49 44 41 37 36 35 35 34 34 36 36 36 37 37 38 39 41 43 45 47 51 55 59 60 66 75 79 76 74 110 134 164 202 233
207 204 196 182 171 135 100 73 62 49 39 35 34 34 35 34 33 33 33 33 33 33 35 36 37 37 40 42 44 48 52 57 60 62 64 67 68 70 94 105 103 285 269
212 208 206 198 193 173 136 86 62 42 32 32 32 32 32 31 30 28 29 30 30 31 33 33 34 35 38 40 42 46 48 50 54 58 58 59 62 64 72 68 19 318 304
215 212 210 204 202 193 180 134 50 33 27 30 31 31 29 28 26 26 26 26 27 28 30 31 31 34 36 39 42 46 47 47 51 52 51 48 48 50 47 40 17 338 322
Height
5892 5891 5891 5890 5890 5889 5888 5887 5886 5885 5884 5883 5882 5881 5880 5879 5878 5877 5876 5875 5874 5873 5872 5872 5872 5871 5871 5871 5871 5872 5872 5873 5873 5874 5875 5876 5877 5878 5879 5880 5881 5882 5883
5892 5892 5891 5890 5890 5889 5888 5887 5886 5885 5884 5883 5881 5880 5879 5878 5877 5876 5875 5874 5873 5872 5871 5870 5870 5870 5870 5870 5870 5870 5871 5872 5872 5873 5874 5875 5876 5877 5878 5879 5880 5881 5882
5892 5892 5891 5891 5890 5889 5888 5887 5886 5885 5884 5882 5881 5880 5878 5877 5876 5875 5874 5873 5872 5871 5870 5869 5869 5868 5868 5868 5869 5869 5870 5870 5871 5872 5873 5874 5875 5876 5877 5878 5879 5881 5882
5892 5892 5891 5891 5890 5889 5888 5887 5886 5885 5883 5882 5881 5879 5878 5876 5875 5874 5872 5871 5870 5869 5869 5868 5867 5867 5867 5867 5867 5868 5868 5869 5870 5870 5871 5872 5874 5875 5876 5877 5879 5880 5881
5892 5892 5891 5891 5890 5889 5888 5887 5886 5884 5883 5881 5880 5879 5877 5876 5874 5873 5871 5870 5869 5868 5867 5866 5866 5866 5865 5865 5865 5866 5867 5867 5868 5869 5870 5871 5872 5873 5875 5876 5878 5879 5880
5892 5892 5891 5891 5890 5889 5888 5887 5885 5884 5883 5881 5880 5878 5876 5875 5873 5872 5870 5869 5868 5867 5866 5865 5864 5864 5863 5863 5864 5864 5865 5866 5867 5867 5868 5870 5871 5872 5873 5875 5876 5878 5879
5892 5892 5891 5891 5890 5889 5888 5887 5885 5884 5882 5881 5879 5877 5876 5874 5872 5871 5869 5868 5866 5865 5864 5863 5862 5861 5861 5861 5862 5862 5863 5864 5865 5866 5867 5868 5869 5870 5872 5873 5875 5876 5878
5892 5892 5892 5891 5890 5889 5888 5887 5885 5884 5882 5880 5879 5877 5875 5873 5872 5870 5868 5866 5865 5863 5862 5861 5860 5859 5859 5859 5860 5861 5861 5862 5863 5865 5865 5866 5868 5869 5871 5872 5874 5875 5877
5892 5892 5892 5891 5890 5889 5888 5887 5885 5883 5882 5880 5878 5877 5875 5873 5871 5869 5867 5865 5863 5861 5860 5858 5857 5857 5857 5857 5858 5858 5859 5860 5862 5863 5864 5865 5866 5868 5869 5871 5872 5874 5875
5892 5892 5892 5891 5890 5889 5888 5886 5885 5883 5882 5880 5878 5876 5874 5872 5870 5868 5866 5864 5862 5860 5858 5856 5855 5855 5855 5855 5855 5856 5857 5858 5860 5861 5861 5863 5865 5866 5868 5870 5871 5873 5874
5892 5892 5892 5891 5890 5889 5888 5887 5885 5883 5882 5880 5878 5876 5874 5872 5870 5868 5865 5863 5860 5858 5856 5855 5853 5853 5853 5853 5853 5854 5855 5857 5858 5859 5860 5862 5863 5865 5867 5869 5870 5872 5874
5892 5892 5892 5891 5890 5889 5888 5887 5885 5884 5882 5880 5878 5876 5874 5872 5870 5867 5865 5862 5860 5857 5855 5853 5852 5851 5851 5851 5852 5852 5853 5855 5856 5858 5859 5860 5862 5864 5866 5868 5869 5871 5873
5892 5892 5892 5891 5890 5889 5888 5887 5886 5884 5882 5881 5879 5877 5874 5872 5870 5867 5865 5862 5859 5857 5855 5853 5851 5850 5850 5850 5850 5851 5852 5853 5855 5856 5858 5859 5861 5863 5865 5866 5868 5870 5872
5892 5892 5892 5891 5891 5890 5889 5887 5886 5885 5883 5881 5879 5877 5875 5872 5870 5868 5865 5862 5860 5857 5855 5852 5851 5849 5849 5849 5849 5850 5851 5852 5854 5855 5857 5858 5860 5862 5864 5865 5867 5869 5871
5892 5892 5892 5892 5891 5890 5889 5888 5886 5885 5883 5882 5880 5877 5875 5873 5871 5868 5866 5863 5860 5857 5855 5852 5850 5849 5848 5848 5848 5849 5850 5851 5853 5854 5856 5858 5860 5861 5863 5865 5866 5868 5870
5892 5892 5892 5891 5891 5890 5890 5888 5887 5885 5884 5882 5880 5878 5876 5874 5871 5869 5866 5864 5861 5858 5855 5853 5850 5849 5848 5848 5848 5848 5849 5851 5852 5854 5855 5857 5859 5861 5862 5864 5866 5868 5870
5892 5892 5892 5892 5891 5891 5890 5889 5887 5886 5884 5883 5881 5879 5877 5874 5872 5870 5867 5865 5862 5859 5856 5853 5851 5850 5849 5848 5848 5849 5849 5851 5852 5854 5855 5857 5858 5860 5862 5863 5865 5867 5869
5892 5892 5892 5892 5891 5891 5890 5889 5888 5887 5885 5884 5882 5880 5878 5875 5873 5870 5868 5866 5863 5860 5858 5855 5853 5851 5850 5849 5849 5849 5850 5851 5852 5854 5855 5857 5858 5860 5861 5863 5864 5866 5868
5892 5892 5892 5892 5892 5891 5891 5890 5889 5887 5886 5885 5883 5881 5879 5877 5874 5872 5870 5867 5865 5862 5859 5857 5855 5853 5852 5851 5851 5851 5851 5852 5853 5854 5855 5857 5858 5859 5861 5862 5864 5866 5867
5891 5892 5892 5892 5892 5892 5891 5890 5889 5888 5887 5886 5884 5882 5880 5878 5876 5874 5871 5869 5867 5864 5862 5859 5857 5855 5854 5853 5852 5852 5852 5853 5853 5854 5856 5857 5858 5859 5861 5862 5864 5865 5867
5891 5891 5892 5892 5892 5892 5891 5891 5890 5889 5888 5887 5885 5884 5882 5880 5878 5876 5874 5871 5869 5866 5864 5861 5859 5857 5856 5855 5854 5854 5854 5854 5854 5855 5856 5857 5858 5860 5861 5862 5863 5865 5866
5890 5891 5892 5892 5892 5892 5892 5891 5891 5890 5889 5888 5887 5885 5884 5882 5880 5878 5876 5873 5871 5869 5866 5864 5862 5860 5858 5857 5856 5856 5855 5856 5856 5856 5857 5858 5859 5860 5861 5862 5863 5865 5866
5890 5891 5892 5892 5892 5892 5892 5892 5891 5891 5890 5889 5888 5887 5885 5884 5882 5880 5877 5875 5873 5871 5869 5866 5864 5862 5861 5859 5858 5858 5857 5857 5857 5858 5858 5859 5860 5861 5862 5863 5864 5865 5866
5889 5890 5891 5892 5892 5892 5892 5892 5892 5892 5891 5890 5889 5888 5887 5885 5883 5882 5880 5877 5875 5873 5871 5868 5866 5864 5862 5861 5860 5859 5859 5859 5859 5860 5860 5860 5861 5861 5862 5863 5864 5865 5866
5889 5890 5891 5891 5892 5892 5892 5892 5892 5892 5892 5891 5890 5889 5888 5886 5885 5883 5881 5879 5877 5875 5873 5870 5868 5866 5864 5862 5861 5861 5861 5861 5861 5861 5861 5862 5862 5862 5863 5864 5865 5865 5866
5888 5889 5890 5891 5892 5892 5892 5892 5892 5892 5892 5891 5891 5890 5889 5888 5886 5885 5883 5881 5879 5877 5875 5872 5870 5867 5866 5864 5863 5863 5862 5862 5862 5863 5863 5863 5863 5863 5864 5865 5865 5865 5866